Time,TemperatureF,DewpointF,PressureIn,WindDirection,WindDirectionDegrees,WindSpeedMPH,WindSpeedGustMPH,Humidity,HourlyPrecipIn,Conditions,Clouds,dailyrainin,SolarRadiationWatts/m^2,SoftwareType,DateUTC
2014-04-18 00:05:00,39.8,35.0,30.01,SE,129,1.0,2.0,83,0.00,,,0.00,0,weatherlink.com 1.10,2014-04-17 22:05:00,
2014-04-18 00:20:00,39.3,35.0,30.00,SE,129,1.0,2.0,83,0.00,,,0.00,0,weatherlink.com 1.10,2014-04-17 22:20:00,
2014-04-18 00:35:00,38.9,34.0,30.00,SE,131,0.0,2.0,83,0.00,,,0.00,0,weatherlink.com 1.10,2014-04-17 22:35:00,
2014-04-18 00:50:00,38.6,34.0,30.00,SE,131,1.0,1.0,83,0.00,,,0.00,0,weatherlink.com 1.10,2014-04-17 22:50:00,
2014-04-18 01:05:00,37.9,34.0,30.00,SE,131,1.0,1.0,84,0.00,,,0.00,0,weatherlink.com 1.10,2014-04-17 23:05:00,
2014-04-18 01:20:00,37.4,34.0,30.00,SE,130,2.0,3.0,86,0.00,,,0.00,0,weatherlink.com 1.10,2014-04-17 23:20:00,
2014-04-18 01:35:00,37.0,34.0,29.99,SE,130,0.0,3.0,87,0.00,,,0.00,0,weatherlink.com 1.10,2014-04-17 23:35:00,
2014-04-18 01:50:00,36.6,33.0,29.99,SE,130,0.0,1.0,87,0.00,,,0.00,0,weatherlink.com 1.10,2014-04-17 23:50:00,
2014-04-18 02:05:00,36.3,33.0,29.98,SE,130,0.0,1.0,88,0.00,,,0.00,0,weatherlink.com 1.10,2014-04-18 00:05:00,
2014-04-18 02:20:00,36.1,33.0,29.98,SE,130,0.0,0.0,88,0.00,,,0.00,0,weatherlink.com 1.10,2014-04-18 00:20:00,
2014-04-18 02:35:00,35.9,33.0,29.98,SSE,161,1.0,2.0,88,0.00,,,0.00,0,weatherlink.com 1.10,2014-04-18 00:35:00,
2014-04-18 02:51:00,35.5,33.0,29.98,SSE,153,2.0,3.0,89,0.00,,,0.00,0,weatherlink.com 1.10,2014-04-18 00:51:00,
2014-04-18 03:06:00,35.2,32.0,29.97,SE,140,3.0,3.0,89,0.00,,,0.00,0,weatherlink.com 1.10,2014-04-18 01:06:00,
2014-04-18 03:21:00,35.1,33.0,29.96,SE,140,0.0,3.0,90,0.00,,,0.00,0,weatherlink.com 1.10,2014-04-18 01:21:00,
2014-04-18 03:36:00,34.8,32.0,29.96,SE,140,0.0,3.0,90,0.00,,,0.00,0,weatherlink.com 1.10,2014-04-18 01:36:00,
2014-04-18 03:51:00,34.7,32.0,29.96,SE,140,0.0,1.0,90,0.00,,,0.00,0,weatherlink.com 1.10,2014-04-18 01:51:00,
2014-04-18 04:06:00,34.5,32.0,29.96,SE,134,3.0,4.0,90,0.00,,,0.00,0,weatherlink.com 1.10,2014-04-18 02:06:00,
2014-04-18 04:22:00,34.4,32.0,29.96,SE,132,0.0,2.0,91,0.00,,,0.00,0,weatherlink.com 1.10,2014-04-18 02:22:00,
2014-04-18 04:51:00,35.1,33.0,29.96,SE,132,2.0,3.0,91,0.00,,,0.00,0,weatherlink.com 1.10,2014-04-18 02:51:00,
2014-04-18 05:06:00,35.5,33.0,29.95,SE,135,0.0,4.0,91,0.00,,,0.00,0,weatherlink.com 1.10,2014-04-18 03:06:00,
2014-04-18 05:36:00,36.0,33.0,29.94,SE,135,0.0,0.0,90,0.00,,,0.00,0,weatherlink.com 1.10,2014-04-18 03:36:00,
2014-04-18 05:51:00,36.8,34.0,29.95,SSE,148,1.0,2.0,90,0.00,,,0.00,0,weatherlink.com 1.10,2014-04-18 03:51:00,
2014-04-18 06:06:00,37.1,34.0,29.94,SSE,148,0.0,0.0,89,0.00,,,0.00,0,weatherlink.com 1.10,2014-04-18 04:06:00,
2014-04-18 06:36:00,37.3,34.0,29.94,SE,138,0.0,3.0,89,0.00,,,0.00,0,weatherlink.com 1.10,2014-04-18 04:36:00,
2014-04-18 06:51:00,37.5,35.0,29.93,SE,138,0.0,3.0,90,0.00,,,0.00,0,weatherlink.com 1.10,2014-04-18 04:51:00,
2014-04-18 07:06:00,37.9,35.0,29.92,SE,138,1.0,2.0,90,0.00,,,0.00,9,weatherlink.com 1.10,2014-04-18 05:06:00,
2014-04-18 07:21:00,38.5,36.0,29.93,SE,138,0.0,4.0,90,0.00,,,0.00,23,weatherlink.com 1.10,2014-04-18 05:21:00,
2014-04-18 07:36:00,39.4,37.0,29.94,SE,138,0.0,3.0,90,0.00,,,0.00,30,weatherlink.com 1.10,2014-04-18 05:36:00,
2014-04-18 07:51:00,39.8,37.0,29.94,SE,138,0.0,4.0,89,0.00,,,0.00,44,weatherlink.com 1.10,2014-04-18 05:51:00,
2014-04-18 08:06:00,41.0,38.0,29.94,South,187,1.0,4.0,89,0.00,,,0.00,47,weatherlink.com 1.10,2014-04-18 06:06:00,